小惑星A/2021 E2

A/2021 E2

English version
Home page
Updated on September 18, 2021

---------------------------------------------------------------------

・ プロフィール

発見日 2021年3月7日
発見光度 21.19等
発見者 Mt. Lemmon Survey

・ 軌道要素

Epoch 2021 July 5.0 TT = JDT 2459400.5
T 2020 Dec. 10.46901 TT                                 Rudenko
q   2.2882654            (2000.0)            P               Q
z  +0.0042724      Peri.  342.46205     -0.88140982     -0.47060084
 +/-0.0000122      Node   190.81157     -0.40324631     +0.70486258
e   0.9902237      Incl.  167.48748     -0.24598606     +0.53075756
H   15.0
From 75 observations 2021 Mar. 7-June 4, mean residual 0".5.

・ 光度変化

        H = 17.5  G = 0.15

---------------------------------------------------------------------

軌道要素はM.P.E.C. 2021-N06に掲載されたものです。
光度グラフはComet for Windowsで作成したものです。

---------------------------------------------------------------------

Copyright(C) Seiichi Yoshida (comet@aerith.net). All rights reserved.